Terminal Aerodrome Forecast
Issued by NWS

Home | Current Version | Previous Version | Text Only | Print | Product List | Glossary On
Versions: 1 2 3 4 5 6 7 8 9 10 11 12 13 14 15 16 17 18 19 20 21 22 23 24 25 26 27
000
FTUS46 KMTR 311700
TAFSFO
TAF
KSFO 311735Z 3118/0124 VRB04KT P6SM FEW005 SCT010
     FM312100 30018KT P6SM FEW009
     FM010400 29012KT P6SM FEW250
     FM010700 30008KT P6SM FEW010
     FM012100 30020KT P6SM SKC=

USA.gov is the U.S. government's official web portal to all federal, state and local government web resources and services.